EW1015 Weather Reports


time (UTC)temp
C
wind
direction
speed
KPH
gust
KPH
rain 1hr
cm
rain 24hr
cm
rain mn
cm
humidity
%
barometer
mb
20260504050008 10 209 1.6 9.7 0.00 0.00 0.00 56 1010.7
20260504044507 11 249 3.2 14.5 0.00 0.00 0.00 56 1010.8
20260504043004 11 242 1.6 8.0 0.00 0.00 0.00 56 1010.9
20260504041504 11 219 3.2 11.3 0.00 0.00 0.00 56 1010.9
20260504040123 11 265 9.7 20.9 0.00 0.00 0.00 54 1010.9
20260504034559 11 251 6.4 19.3 0.00 0.00 0.00 55 1010.7
20260504033102 11 232 6.4 14.5 0.00 0.00 0.00 56 1010.8
20260504031600 11 229 6.4 14.5 0.00 0.00 0.00 56 1010.9
20260504030058 12 275 11.3 24.1 0.00 0.00 0.00 54 1010.9
20260504024557 12 240 12.9 32.2 0.00 0.00 0.00 53 1011.0
20260504023102 12 282 20.9 32.2 0.00 0.00 0.00 53 1011.1
20260504021557 12 238 14.5 25.7 0.00 0.00 0.00 53 1011.3
20260504020056 12 319 11.3 16.1 0.00 0.00 0.00 54 1011.3
20260504014605 12 262 11.3 20.9 0.00 0.00 0.00 55 1011.4
20260504013101 12 244 11.3 20.9 0.00 0.00 0.00 54 1011.4
20260504011555 11 297 11.3 25.7 0.00 0.00 0.00 54 1011.7
20260504010055 12 254 17.7 33.8 0.00 0.00 0.00 54 1011.7
20260504004554 12 285 16.1 41.8 0.00 0.00 0.00 51 1011.8
20260504003101 12 291 12.9 20.9 0.00 0.00 0.00 50 1011.5
20260504001602 12 267 19.3 29.0 0.00 0.00 0.00 50 1011.3
20260504000042 12 279 14.5 45.1 0.00 0.00 0.00 51 1011.4
20260503234537 12 279 19.3 35.4 0.00 0.00 0.00 49 1011.7
20260503233033 12 260 22.5 41.8 0.00 0.00 0.00 48 1011.2
20260503231528 13 245 19.3 30.6 0.00 0.00 0.00 46 1011.0
20260503230024 13 298 11.3 27.4 0.00 0.00 0.00 44 1010.9
20260503224519 13 269 19.3 33.8 0.00 0.00 0.00 43 1010.8
20260503223014 13 317 17.7 35.4 0.00 0.00 0.00 44 1011.0
20260503221511 13 319 19.3 30.6 0.00 0.00 0.00 44 1010.9
20260503220006 13 279 22.5 35.4 0.00 0.00 0.00 44 1011.0
20260503214503 13 286 16.1 24.1 0.00 0.00 0.00 45 1010.8
20260503213057 13 273 9.7 16.1 0.00 0.00 0.00 47 1010.8
20260503211553 13 294 14.5 22.5 0.00 0.00 0.00 46 1010.8
20260503210048 13 314 11.3 22.5 0.00 0.00 0.00 45 1010.9
20260503204544 13 298 14.5 24.1 0.00 0.00 0.00 44 1011.1
20260503203039 13 281 12.9 25.7 0.00 0.00 0.00 45 1011.2
20260503201535 12 267 11.3 22.5 0.00 0.00 0.00 47 1011.5
20260503200030 12 281 16.1 25.7 0.00 0.00 0.00 46 1011.8
20260503194526 13 291 12.9 27.4 0.00 0.00 0.00 48 1012.1
20260503193036 12 275 16.1 25.7 0.00 0.00 0.00 49 1012.3
20260503191517 12 241 16.1 25.7 0.00 0.00 0.00 49 1012.5
20260503190012 12 294 19.3 37.0 0.00 0.00 0.00 45 1012.7
20260503184509 12 269 17.7 35.4 0.00 0.00 0.00 46 1012.9
20260503183003 12 328 14.5 37.0 0.00 0.00 0.00 47 1013.2
20260503181626 11 267 24.1 37.0 0.00 0.00 0.00 47 1013.1
20260503180059 11 296 20.9 33.8 0.00 0.00 0.00 47 1013.3
20260503174550 11 287 16.1 27.4 0.00 0.00 0.00 49 1013.4
20260503173054 11 281 16.1 27.4 0.00 0.00 0.00 52 1013.4
20260503171541 11 292 19.3 33.8 0.00 0.00 0.00 49 1013.5
20260503081502 2 279 3.2 9.7 0.00 0.00 0.00 13 1015.7
20260503080106 2 265 4.8 11.3 0.00 0.00 0.00 19 1015.6
20260503071557 3 271 8.0 14.5 0.00 0.00 0.00 32 1015.6
20260503070108 3 284 8.0 14.5 0.00 0.00 0.00 34 1015.6